"read_dt","SO2 (ppb)","flags","PMT voltage (V)","lamp voltage (V)","lamp intensity (Hz)","internal temp (C)","react chamber temp (C)","sample flow (l/min)","pres (mmHg)","SO2 bkg (ppb)","SO2 coefficient"
2014-07-11 00:00:00,1999E-3,5C000000,-0723,0839,12166,041.5,046.0,0.462,735.3,01.18,0.508
2014-07-11 00:01:00,1927E-3,5C000000,-0723,0837,12109,041.5,046.0,0.461,735.3,01.18,0.508
2014-07-11 00:02:00,1947E-3,5C000000,-0723,0837,12047,041.5,046.0,0.462,735.4,01.18,0.508
2014-07-11 00:03:00,1899E-3,5C000000,-0723,0837,12098,041.5,046.0,0.462,735.2,01.18,0.508
2014-07-11 00:04:00,1891E-3,5C000000,-0723,0837,12145,041.4,045.9,0.462,735.3,01.18,0.508
2014-07-11 00:05:00,1884E-3,5C000000,-0723,0837,11989,041.4,045.9,0.462,735.3,01.18,0.508
2014-07-11 00:06:00,1831E-3,5C000000,-0723,0836,12027,041.5,046.0,0.462,735.3,01.18,0.508
2014-07-11 00:07:00,1834E-3,5C000000,-0723,0838,12154,041.4,046.0,0.462,735.1,01.18,0.508
2014-07-11 00:08:00,1790E-3,5C000000,-0723,0837,12261,041.5,046.0,0.462,735.1,01.18,0.508
2014-07-11 00:09:00,1988E-3,5C000000,-0723,0838,12045,041.4,046.0,0.461,735.1,01.18,0.508
2014-07-11 00:10:00,1871E-3,5C000000,-0723,0837,11964,041.4,046.0,0.462,735.1,01.18,0.508
2014-07-11 00:11:00,2090E-3,5C000000,-0723,0838,12247,041.4,046.0,0.462,735.1,01.18,0.508
2014-07-11 00:12:00,1820E-3,5C000000,-0723,0838,12277,041.4,045.9,0.462,735.1,01.18,0.508
2014-07-11 00:13:00,1894E-3,5C000000,-0723,0838,12057,041.3,046.0,0.462,735.1,01.18,0.508
2014-07-11 00:14:00,1980E-3,5C000000,-0723,0838,12194,041.2,045.9,0.462,735.3,01.18,0.508
2014-07-11 00:15:00,1986E-3,5C000000,-0723,0837,12194,041.0,045.9,0.462,735.4,01.18,0.508
2014-07-11 00:16:00,1812E-3,5C000000,-0723,0837,12041,041.0,045.9,0.462,735.5,01.18,0.508
2014-07-11 00:17:00,1898E-3,5C000000,-0723,0836,12221,040.9,045.9,0.463,735.5,01.18,0.508
2014-07-11 00:18:00,1968E-3,5C000000,-0723,0836,12126,040.8,045.9,0.462,735.4,01.18,0.508
2014-07-11 00:19:00,1941E-3,5C000000,-0723,0835,12259,040.8,045.9,0.463,735.4,01.18,0.508
2014-07-11 00:20:00,1682E-3,5C000000,-0723,0836,11958,040.7,045.9,0.463,735.5,01.18,0.508
2014-07-11 00:21:00,1832E-3,5C000000,-0723,0837,11945,040.7,045.9,0.463,735.5,01.18,0.508
2014-07-11 00:22:00,2073E-3,5C000000,-0723,0837,11919,040.6,045.9,0.463,735.5,01.18,0.508
2014-07-11 00:23:00,2002E-3,5C000000,-0723,0838,12203,040.6,045.9,0.463,735.5,01.18,0.508
2014-07-11 00:24:00,1868E-3,5C000000,-0723,0837,12114,040.6,045.9,0.463,735.5,01.18,0.508
2014-07-11 00:25:00,1829E-3,5C000000,-0723,0836,12062,040.5,045.9,0.463,735.2,01.18,0.508
2014-07-11 00:26:00,1941E-3,5C000000,-0723,0836,12194,040.5,045.9,0.463,735.5,01.18,0.508
2014-07-11 00:27:00,1925E-3,5C000000,-0723,0837,12269,040.5,045.9,0.463,735.6,01.18,0.508
2014-07-11 00:28:00,1854E-3,5C000000,-0723,0837,12194,040.4,045.9,0.463,735.5,01.18,0.508
2014-07-11 00:29:00,1804E-3,5C000000,-0723,0836,11930,040.4,045.9,0.463,735.4,01.18,0.508
2014-07-11 00:30:00,1894E-3,5C000000,-0723,0835,12062,040.4,045.9,0.464,735.5,01.18,0.508
2014-07-11 00:31:00,1914E-3,5C000000,-0723,0836,12119,040.4,045.9,0.463,735.5,01.18,0.508
2014-07-11 00:32:00,1877E-3,5C000000,-0723,0836,12201,040.3,045.9,0.463,735.5,01.18,0.508
2014-07-11 00:33:00,1809E-3,5C000000,-0723,0835,12028,040.3,045.9,0.464,735.5,01.18,0.508
2014-07-11 00:34:00,1837E-3,5C000000,-0723,0836,12234,040.3,045.9,0.463,735.4,01.18,0.508
2014-07-11 00:35:00,1904E-3,5C000000,-0723,0835,12113,040.3,045.9,0.464,735.6,01.18,0.508
2014-07-11 00:36:00,1899E-3,5C000000,-0723,0836,12025,040.3,045.9,0.463,735.6,01.18,0.508
2014-07-11 00:37:00,2038E-3,5C000000,-0723,0836,12103,040.3,045.9,0.464,735.7,01.18,0.508
2014-07-11 00:38:00,1926E-3,5C000000,-0723,0836,12070,040.3,045.9,0.464,735.7,01.18,0.508
2014-07-11 00:39:00,1847E-3,5C000000,-0723,0836,12185,040.3,045.9,0.463,735.7,01.18,0.508
2014-07-11 00:40:00,1895E-3,5C000000,-0723,0837,12214,040.2,045.9,0.464,735.7,01.18,0.508
2014-07-11 00:41:00,1899E-3,5C000000,-0723,0835,11910,040.3,045.9,0.463,735.7,01.18,0.508
2014-07-11 00:42:00,1990E-3,5C000000,-0723,0836,12065,040.3,045.9,0.463,735.6,01.18,0.508
2014-07-11 00:43:00,1844E-3,5C000000,-0723,0837,11990,040.2,045.9,0.464,735.6,01.18,0.508
2014-07-11 00:44:00,1879E-3,5C000000,-0723,0836,12221,040.2,045.9,0.463,735.6,01.18,0.508
2014-07-11 00:45:00,1910E-3,5C000000,-0723,0837,12180,040.2,045.9,0.464,735.7,01.18,0.508
2014-07-11 00:46:00,1957E-3,5C000000,-0723,0836,12128,040.2,045.9,0.464,735.7,01.18,0.508
2014-07-11 00:47:00,1929E-3,5C000000,-0723,0835,12066,040.2,045.9,0.463,735.7,01.18,0.508
2014-07-11 00:48:00,1920E-3,5C000000,-0723,0835,12167,040.2,045.9,0.464,735.6,01.18,0.508
2014-07-11 00:49:00,1785E-3,5C000000,-0723,0836,12116,040.2,045.9,0.464,735.7,01.18,0.508
2014-07-11 00:50:00,1870E-3,5C000000,-0723,0836,12221,040.2,045.9,0.463,735.8,01.18,0.508
2014-07-11 00:51:00,1997E-3,5C000000,-0723,0836,12192,040.2,045.9,0.464,735.9,01.18,0.508
2014-07-11 00:52:00,1866E-3,5C000000,-0723,0836,12297,040.2,045.9,0.464,735.9,01.18,0.508
2014-07-11 00:53:00,1949E-3,5C000000,-0723,0836,12241,040.2,045.9,0.464,735.9,01.18,0.508
2014-07-11 00:54:00,1965E-3,5C000000,-0723,0837,12112,040.2,045.9,0.464,735.9,01.18,0.508
2014-07-11 00:55:00,1900E-3,5C000000,-0723,0836,12283,040.2,045.9,0.464,735.9,01.18,0.508
2014-07-11 00:56:00,1897E-3,5C000000,-0723,0835,11929,040.2,045.9,0.463,735.8,01.18,0.508
2014-07-11 00:57:00,1884E-3,5C000000,-0723,0836,12165,040.2,045.9,0.464,735.8,01.18,0.508
2014-07-11 00:58:00,1789E-3,5C000000,-0723,0836,12142,040.2,045.9,0.464,736.0,01.18,0.508
2014-07-11 00:59:00,1841E-3,5C000000,-0723,0836,12021,040.2,045.9,0.464,736.0,01.18,0.508
2014-07-11 01:00:00,1864E-3,5C000000,-0723,0835,12154,040.2,045.9,0.464,736.0,01.18,0.508
2014-07-11 01:01:00,1778E-3,5C000000,-0723,0835,12113,040.2,045.9,0.464,735.9,01.18,0.508
2014-07-11 01:02:00,1932E-3,5C000000,-0723,0837,12168,040.2,045.9,0.463,735.9,01.18,0.508
2014-07-11 01:03:00,1785E-3,5C000000,-0723,0835,12152,040.2,045.9,0.464,735.9,01.18,0.508
2014-07-11 01:04:00,1810E-3,5C000000,-0723,0836,12093,040.2,045.9,0.464,735.8,01.18,0.508
2014-07-11 01:05:00,1932E-3,5C000000,-0723,0836,12219,040.2,045.9,0.464,735.9,01.18,0.508
2014-07-11 01:06:00,1916E-3,5C000000,-0723,0836,12087,040.2,045.9,0.464,735.8,01.18,0.508
2014-07-11 01:07:00,1864E-3,5C000000,-0723,0837,12164,040.3,045.9,0.463,735.8,01.18,0.508
2014-07-11 01:08:00,2070E-3,5C000000,-0723,0837,11937,040.2,045.9,0.464,735.8,01.18,0.508
2014-07-11 01:09:00,1887E-3,5C000000,-0723,0836,12115,040.2,045.9,0.464,735.9,01.18,0.508
2014-07-11 01:10:00,1977E-3,5C000000,-0723,0837,12270,040.3,045.9,0.463,735.6,01.18,0.508
2014-07-11 01:11:00,1881E-3,5C000000,-0723,0837,12300,040.2,045.9,0.464,735.5,01.18,0.508
2014-07-11 01:12:00,1874E-3,5C000000,-0723,0835,12127,040.3,045.9,0.464,735.6,01.18,0.508
2014-07-11 01:13:00,1917E-3,5C000000,-0723,0836,12165,040.3,045.9,0.463,735.6,01.18,0.508
2014-07-11 01:14:00,2012E-3,5C000000,-0723,0836,12192,040.3,045.9,0.464,735.5,01.18,0.508
2014-07-11 01:15:00,1851E-3,5C000000,-0723,0836,11955,040.3,045.9,0.463,735.5,01.18,0.508
2014-07-11 01:16:00,1797E-3,5C000000,-0723,0835,12080,040.3,045.9,0.463,735.5,01.18,0.508
2014-07-11 01:17:00,1877E-3,5C000000,-0723,0836,12135,040.3,045.9,0.464,735.6,01.18,0.508
2014-07-11 01:18:00,1986E-3,5C000000,-0723,0836,12132,040.3,045.9,0.463,735.7,01.18,0.508
2014-07-11 01:19:00,1859E-3,5C000000,-0723,0836,12000,040.3,045.9,0.464,735.7,01.18,0.508
2014-07-11 01:20:00,1952E-3,5C000000,-0723,0837,12155,040.3,045.9,0.463,735.5,01.18,0.508
2014-07-11 01:21:00,1966E-3,5C000000,-0723,0836,12120,040.3,045.9,0.464,735.6,01.18,0.508
2014-07-11 01:22:00,1764E-3,5C000000,-0723,0837,12165,040.3,045.9,0.463,735.7,01.18,0.508
2014-07-11 01:23:00,1838E-3,5C000000,-0723,0836,12105,040.3,045.9,0.463,735.7,01.18,0.508
2014-07-11 01:24:00,1785E-3,5C000000,-0723,0836,12239,040.3,045.9,0.464,735.8,01.18,0.508
2014-07-11 01:25:00,1948E-3,5C000000,-0723,0836,12269,040.3,045.9,0.463,735.7,01.18,0.508
2014-07-11 01:26:00,1949E-3,5C000000,-0723,0836,12092,040.3,045.9,0.463,735.8,01.18,0.508
2014-07-11 01:27:00,1830E-3,5C000000,-0723,0837,12196,040.3,045.9,0.464,735.8,01.18,0.508
2014-07-11 01:28:00,1869E-3,5C000000,-0723,0837,12171,040.3,045.9,0.463,735.7,01.18,0.508
2014-07-11 01:29:00,1933E-3,5C000000,-0723,0836,12065,040.3,045.9,0.463,735.9,01.18,0.508
2014-07-11 01:30:00,1865E-3,5C000000,-0723,0836,12206,040.3,045.9,0.464,735.6,01.18,0.508
2014-07-11 01:31:00,1910E-3,5C000000,-0723,0836,12069,040.3,045.9,0.463,735.7,01.18,0.508
2014-07-11 01:32:00,1891E-3,5C000000,-0723,0836,12060,040.3,045.9,0.464,735.8,01.18,0.508
2014-07-11 01:33:00,1856E-3,5C000000,-0723,0835,12245,040.3,045.9,0.464,735.9,01.18,0.508
2014-07-11 01:34:00,1949E-3,5C000000,-0723,0836,12086,040.3,045.9,0.463,735.9,01.18,0.508
2014-07-11 01:35:00,1815E-3,5C000000,-0723,0837,12258,040.4,045.9,0.464,735.9,01.18,0.508
2014-07-11 01:36:00,1868E-3,5C000000,-0723,0835,12177,040.4,045.9,0.463,735.7,01.18,0.508
2014-07-11 01:37:00,1898E-3,5C000000,-0723,0835,12200,040.4,045.9,0.463,736.0,01.18,0.508
2014-07-11 01:38:00,1828E-3,5C000000,-0723,0836,12267,040.4,045.9,0.464,735.9,01.18,0.508
2014-07-11 01:39:00,1915E-3,5C000000,-0723,0837,12068,040.4,045.9,0.463,736.0,01.18,0.508
2014-07-11 01:40:00,1949E-3,5C000000,-0723,0836,12156,040.3,045.9,0.463,735.9,01.18,0.508
2014-07-11 01:41:00,1792E-3,5C000000,-0723,0837,12164,040.3,045.9,0.464,736.2,01.18,0.508
2014-07-11 01:42:00,1912E-3,5C000000,-0723,0837,12013,040.3,045.9,0.463,736.2,01.18,0.508
2014-07-11 01:43:00,1947E-3,5C000000,-0723,0836,12221,040.3,045.9,0.464,736.3,01.18,0.508
2014-07-11 01:44:00,1913E-3,5C000000,-0723,0836,12027,040.3,045.9,0.464,736.3,01.18,0.508
2014-07-11 01:45:00,2020E-3,5C000000,-0723,0836,12086,040.3,045.9,0.463,736.3,01.18,0.508
2014-07-11 01:46:00,1861E-3,5C000000,-0723,0836,12148,040.2,045.9,0.463,736.3,01.18,0.508
2014-07-11 01:47:00,1853E-3,5C000000,-0723,0835,12126,040.2,045.9,0.464,736.3,01.18,0.508
2014-07-11 01:48:00,1869E-3,5C000000,-0723,0836,12183,040.3,045.9,0.464,736.3,01.18,0.508
2014-07-11 01:49:00,1818E-3,5C000000,-0723,0836,12088,040.3,045.9,0.463,736.3,01.18,0.508
2014-07-11 01:50:00,1944E-3,5C000000,-0723,0836,12135,040.4,045.9,0.464,736.4,01.18,0.508
2014-07-11 01:51:00,1947E-3,5C000000,-0723,0837,12083,040.4,045.9,0.463,736.3,01.18,0.508
2014-07-11 01:52:00,1945E-3,5C000000,-0723,0836,12299,040.4,045.9,0.463,736.3,01.18,0.508
2014-07-11 01:53:00,1857E-3,5C000000,-0723,0836,12080,040.4,045.9,0.464,736.3,01.18,0.508
2014-07-11 01:54:00,1789E-3,5C000000,-0723,0837,12149,040.4,045.9,0.463,736.4,01.18,0.508
2014-07-11 01:55:00,1884E-3,5C000000,-0723,0836,12171,040.4,045.9,0.463,736.4,01.18,0.508
2014-07-11 01:56:00,1744E-3,5C000000,-0723,0836,12281,040.3,045.9,0.463,736.3,01.18,0.508
2014-07-11 01:57:00,1771E-3,5C000000,-0723,0836,12210,040.3,045.9,0.464,736.3,01.18,0.508
2014-07-11 01:58:00,1918E-3,5C000000,-0723,0836,12234,040.3,045.9,0.464,736.4,01.18,0.508
2014-07-11 01:59:00,1980E-3,5C000000,-0723,0837,12213,040.3,045.9,0.464,736.4,01.18,0.508
2014-07-11 02:00:00,1824E-3,5C000000,-0723,0837,12060,040.2,045.9,0.463,736.4,01.18,0.508
2014-07-11 02:01:00,1773E-3,5C000000,-0723,0836,12199,040.2,045.9,0.463,736.5,01.18,0.508
2014-07-11 02:02:00,1872E-3,5C000000,-0723,0836,11964,040.2,045.9,0.464,736.4,01.18,0.508
2014-07-11 02:03:00,1925E-3,5C000000,-0723,0836,12191,040.1,045.9,0.464,736.5,01.18,0.508
2014-07-11 02:04:00,1885E-3,5C000000,-0723,0835,12064,040.1,045.9,0.464,736.5,01.18,0.508
2014-07-11 02:05:00,1853E-3,5C000000,-0723,0836,12067,040.0,045.9,0.464,736.5,01.18,0.508
2014-07-11 02:06:00,1798E-3,5C000000,-0723,0836,12102,040.0,045.9,0.464,736.5,01.18,0.508
2014-07-11 02:07:00,1848E-3,5C000000,-0723,0837,12105,039.9,045.9,0.464,736.5,01.18,0.508
2014-07-11 02:08:00,1885E-3,5C000000,-0723,0836,12239,039.9,045.9,0.464,736.3,01.18,0.508
2014-07-11 02:09:00,1857E-3,5C000000,-0723,0836,12233,039.8,045.9,0.465,736.3,01.18,0.508
2014-07-11 02:10:00,1892E-3,5C000000,-0723,0836,12195,039.8,045.9,0.465,736.3,01.18,0.508
2014-07-11 02:11:00,1790E-3,5C000000,-0723,0836,12063,039.8,045.9,0.464,736.2,01.18,0.508
2014-07-11 02:12:00,1921E-3,5C000000,-0723,0836,12275,039.7,045.9,0.465,736.3,01.18,0.508
2014-07-11 02:13:00,1885E-3,5C000000,-0723,0836,11970,039.7,045.9,0.465,736.3,01.18,0.508
2014-07-11 02:14:00,1971E-3,5C000000,-0723,0836,12097,039.6,045.9,0.464,736.3,01.18,0.508
2014-07-11 02:15:00,1805E-3,5C000000,-0723,0836,12265,039.6,045.9,0.465,736.3,01.18,0.508
2014-07-11 02:16:00,1835E-3,5C000000,-0723,0835,12212,039.5,045.9,0.465,736.3,01.18,0.508
2014-07-11 02:17:00,1892E-3,5C000000,-0723,0836,12127,039.5,045.9,0.465,736.4,01.18,0.508
2014-07-11 02:18:00,1970E-3,5C000000,-0723,0836,12197,039.4,045.9,0.465,736.4,01.18,0.508
2014-07-11 02:19:00,1870E-3,5C000000,-0723,0836,12271,039.4,045.9,0.466,736.5,01.18,0.508
2014-07-11 02:20:00,1891E-3,5C000000,-0723,0836,12213,039.3,045.9,0.465,736.4,01.18,0.508
2014-07-11 02:21:00,1828E-3,5C000000,-0723,0835,12069,039.3,045.9,0.465,736.4,01.18,0.508
2014-07-11 02:22:00,1872E-3,5C000000,-0723,0836,12121,039.3,045.9,0.466,736.3,01.18,0.508
2014-07-11 02:23:00,1757E-3,5C000000,-0723,0835,12102,039.2,045.9,0.466,736.3,01.18,0.508
2014-07-11 02:24:00,1901E-3,5C000000,-0723,0835,12079,039.2,045.9,0.466,736.4,01.18,0.508
2014-07-11 02:25:00,1831E-3,5C000000,-0723,0836,12076,039.1,045.9,0.465,736.4,01.18,0.508
2014-07-11 02:26:00,1917E-3,5C000000,-0723,0834,12087,039.1,045.9,0.466,736.4,01.18,0.508
2014-07-11 02:27:00,1861E-3,5C000000,-0723,0834,12126,039.0,045.9,0.466,736.4,01.18,0.508
2014-07-11 02:28:00,1814E-3,5C000000,-0723,0835,12193,039.0,045.9,0.466,736.4,01.18,0.508
2014-07-11 02:29:00,1812E-3,5C000000,-0723,0834,12178,038.9,045.9,0.466,736.4,01.18,0.508
2014-07-11 02:30:00,1781E-3,5C000000,-0723,0834,11916,038.9,045.9,0.466,736.5,01.18,0.508
2014-07-11 02:31:00,1901E-3,5C000000,-0723,0836,11844,038.8,045.9,0.466,736.5,01.18,0.508
2014-07-11 02:32:00,1804E-3,5C000000,-0723,0835,12117,038.8,045.9,0.467,736.6,01.18,0.508
2014-07-11 02:33:00,1866E-3,5C000000,-0723,0835,12183,038.7,045.9,0.467,736.6,01.18,0.508
2014-07-11 02:34:00,1788E-3,5C000000,-0723,0836,12005,038.7,045.9,0.467,736.5,01.18,0.508
2014-07-11 02:35:00,1811E-3,5C000000,-0723,0834,12260,038.6,045.9,0.466,736.5,01.18,0.508
2014-07-11 02:36:00,1891E-3,5C000000,-0723,0835,12210,038.6,045.9,0.466,736.6,01.18,0.508
2014-07-11 02:37:00,1812E-3,5C000000,-0723,0834,12233,038.6,045.9,0.466,736.7,01.18,0.508
2014-07-11 02:38:00,1827E-3,5C000000,-0723,0836,12268,038.5,045.9,0.467,736.7,01.18,0.508
2014-07-11 02:39:00,1810E-3,5C000000,-0723,0833,12059,038.5,045.9,0.467,736.6,01.18,0.508
2014-07-11 02:40:00,1741E-3,5C000000,-0723,0835,12114,038.4,045.8,0.467,736.5,01.18,0.508
2014-07-11 02:41:00,1891E-3,5C000000,-0723,0834,11851,038.4,045.9,0.467,736.5,01.18,0.508
2014-07-11 02:42:00,1806E-3,5C000000,-0723,0834,12005,038.4,045.9,0.467,736.7,01.18,0.508
2014-07-11 02:43:00,1867E-3,5C000000,-0723,0833,12194,038.3,045.9,0.467,736.6,01.18,0.508
2014-07-11 02:44:00,1848E-3,5C000000,-0723,0834,11930,038.3,045.8,0.468,736.7,01.18,0.508
2014-07-11 02:45:00,1752E-3,5C000000,-0723,0834,12162,038.2,045.8,0.468,736.6,01.18,0.508
2014-07-11 02:46:00,1911E-3,5C000000,-0723,0835,11848,038.2,045.9,0.468,736.7,01.18,0.508
2014-07-11 02:47:00,1924E-3,5C000000,-0723,0834,12118,038.2,045.8,0.468,736.7,01.18,0.508
2014-07-11 02:48:00,1761E-3,5C000000,-0723,0835,12040,038.1,045.8,0.468,736.6,01.18,0.508
2014-07-11 02:49:00,1739E-3,5C000000,-0723,0834,12218,038.1,045.8,0.468,736.6,01.18,0.508
2014-07-11 02:50:00,1900E-3,5C000000,-0723,0836,12205,038.0,045.8,0.468,736.6,01.18,0.508
2014-07-11 02:51:00,1873E-3,5C000000,-0723,0835,12174,038.0,045.8,0.468,736.6,01.18,0.508
2014-07-11 02:52:00,1836E-3,5C000000,-0723,0835,12249,038.0,045.8,0.468,736.7,01.18,0.508
2014-07-11 02:53:00,1935E-3,5C000000,-0723,0835,12189,037.9,045.8,0.468,736.8,01.18,0.508
2014-07-11 02:54:00,1880E-3,5C000000,-0723,0835,12188,037.9,045.8,0.468,736.8,01.18,0.508
2014-07-11 02:55:00,1868E-3,5C000000,-0723,0833,12242,037.9,045.8,0.468,736.7,01.18,0.508
2014-07-11 02:56:00,1896E-3,5C000000,-0723,0834,12207,037.8,045.8,0.468,736.9,01.18,0.508
2014-07-11 02:57:00,1746E-3,5C000000,-0723,0834,12224,037.8,045.8,0.468,736.8,01.18,0.508
2014-07-11 02:58:00,1873E-3,5C000000,-0723,0834,12041,037.7,045.8,0.468,736.9,01.18,0.508
2014-07-11 02:59:00,1912E-3,5C000000,-0723,0834,12093,037.7,045.8,0.468,736.9,01.18,0.508
2014-07-11 03:00:00,1797E-3,5C000000,-0723,0833,12077,037.7,045.8,0.468,736.9,01.18,0.508
2014-07-11 03:01:00,1833E-3,5C000000,-0723,0834,12219,037.6,045.8,0.468,736.9,01.18,0.508
2014-07-11 03:02:00,1793E-3,5C000000,-0723,0833,12008,037.6,045.8,0.469,736.9,01.18,0.508
2014-07-11 03:03:00,1671E-3,5C000000,-0723,0834,12190,037.6,045.8,0.469,737.0,01.18,0.508
2014-07-11 03:04:00,1876E-3,5C000000,-0723,0833,12168,037.5,045.8,0.469,736.9,01.18,0.508
2014-07-11 03:05:00,1924E-3,5C000000,-0723,0834,12175,037.5,045.8,0.469,737.0,01.18,0.508
2014-07-11 03:06:00,1826E-3,5C000000,-0724,0834,12119,037.4,045.8,0.468,737.0,01.18,0.508
2014-07-11 03:07:00,1935E-3,5C000000,-0723,0833,12036,037.4,045.8,0.468,736.9,01.18,0.508
2014-07-11 03:08:00,1955E-3,5C000000,-0723,0834,12195,037.4,045.8,0.469,737.0,01.18,0.508
2014-07-11 03:09:00,1840E-3,5C000000,-0723,0834,11926,037.3,045.8,0.469,736.9,01.18,0.508
2014-07-11 03:10:00,1702E-3,5C000000,-0724,0833,12167,037.3,045.8,0.469,736.9,01.18,0.508
2014-07-11 03:11:00,2001E-3,5C000000,-0724,0835,12297,037.3,045.8,0.469,736.9,01.18,0.508
2014-07-11 03:12:00,1883E-3,5C000000,-0723,0834,12271,037.3,045.8,0.469,736.9,01.18,0.508
2014-07-11 03:13:00,1970E-3,5C000000,-0723,0833,12137,037.2,045.8,0.469,736.9,01.18,0.508
2014-07-11 03:14:00,1807E-3,5C000000,-0724,0833,12152,037.2,045.8,0.469,736.9,01.18,0.508
2014-07-11 03:15:00,1899E-3,5C000000,-0724,0834,12163,037.1,045.8,0.470,736.9,01.18,0.508
2014-07-11 03:16:00,1820E-3,5C000000,-0724,0834,12164,037.1,045.8,0.469,736.8,01.18,0.508
2014-07-11 03:17:00,1752E-3,5C000000,-0724,0834,12025,037.1,045.8,0.469,736.8,01.18,0.508
2014-07-11 03:18:00,1915E-3,5C000000,-0724,0833,12061,037.1,045.8,0.469,736.9,01.18,0.508
2014-07-11 03:19:00,1888E-3,5C000000,-0723,0834,12324,037.0,045.8,0.470,736.9,01.18,0.508
2014-07-11 03:20:00,1832E-3,5C000000,-0724,0833,12064,037.0,045.8,0.469,736.9,01.18,0.508
2014-07-11 03:21:00,1793E-3,5C000000,-0724,0834,12208,037.0,045.8,0.469,736.9,01.18,0.508
2014-07-11 03:22:00,1893E-3,5C000000,-0724,0833,12094,036.9,045.8,0.470,736.9,01.18,0.508
2014-07-11 03:23:00,1935E-3,5C000000,-0724,0834,12115,036.9,045.8,0.470,736.8,01.18,0.508
2014-07-11 03:24:00,1703E-3,5C000000,-0724,0832,12065,036.9,045.8,0.469,736.7,01.18,0.508
2014-07-11 03:25:00,1896E-3,5C000000,-0724,0834,12208,036.9,045.8,0.469,736.8,01.18,0.508
2014-07-11 03:26:00,1862E-3,5C000000,-0724,0833,12274,036.8,045.8,0.470,737.0,01.18,0.508
2014-07-11 03:27:00,1846E-3,5C000000,-0724,0832,12342,036.8,045.8,0.469,737.0,01.18,0.508
2014-07-11 03:28:00,1878E-3,5C000000,-0724,0834,12048,036.8,045.8,0.470,737.0,01.18,0.508
2014-07-11 03:29:00,1807E-3,5C000000,-0724,0834,12111,036.8,045.8,0.470,736.9,01.18,0.508
2014-07-11 03:30:00,1921E-3,5C000000,-0724,0833,12215,036.8,045.8,0.470,737.0,01.18,0.508
2014-07-11 03:31:00,1913E-3,5C000000,-0724,0832,12285,036.7,045.8,0.469,737.0,01.18,0.508
2014-07-11 03:32:00,1837E-3,5C000000,-0724,0834,12287,036.7,045.8,0.470,737.0,01.18,0.508
2014-07-11 03:33:00,1865E-3,5C000000,-0724,0834,12200,036.7,045.8,0.470,737.0,01.18,0.508
2014-07-11 03:34:00,1788E-3,5C000000,-0724,0834,12217,036.7,045.8,0.470,737.0,01.18,0.508
2014-07-11 03:35:00,1683E-3,5C000000,-0724,0833,12076,036.6,045.8,0.470,737.0,01.18,0.508
2014-07-11 03:36:00,1812E-3,5C000000,-0724,0833,12145,036.6,045.8,0.470,737.0,01.18,0.508
2014-07-11 03:37:00,1896E-3,5C000000,-0724,0834,12199,036.6,045.8,0.470,737.0,01.18,0.508
2014-07-11 03:38:00,1987E-3,5C000000,-0724,0833,12087,036.6,045.8,0.470,737.0,01.18,0.508
2014-07-11 03:39:00,1863E-3,5C000000,-0724,0833,12099,036.6,045.8,0.470,736.9,01.18,0.508
2014-07-11 03:40:00,1734E-3,5C000000,-0724,0833,12218,036.5,045.8,0.470,737.0,01.18,0.508
2014-07-11 03:41:00,1897E-3,5C000000,-0724,0834,11767,036.5,045.8,0.470,737.0,01.18,0.508
2014-07-11 03:42:00,1894E-3,5C000000,-0724,0834,11941,036.5,045.8,0.470,736.9,01.18,0.508
2014-07-11 03:43:00,1821E-3,5C000000,-0724,0833,12146,036.5,045.8,0.470,737.0,01.18,0.508
2014-07-11 03:44:00,1869E-3,5C000000,-0724,0833,12198,036.5,045.8,0.470,736.9,01.18,0.508
2014-07-11 03:45:00,1759E-3,5C000000,-0724,0833,12105,036.5,045.8,0.470,737.0,01.18,0.508
2014-07-11 03:46:00,1922E-3,5C000000,-0724,0833,12215,036.5,045.8,0.470,737.0,01.18,0.508
2014-07-11 03:47:00,1790E-3,5C000000,-0724,0833,12005,036.4,045.8,0.470,737.0,01.18,0.508
2014-07-11 03:48:00,1860E-3,5C000000,-0724,0833,12110,036.4,045.8,0.471,737.1,01.18,0.508
2014-07-11 03:49:00,1884E-3,5C000000,-0724,0833,12172,036.4,045.8,0.470,737.1,01.18,0.508
2014-07-11 03:50:00,1810E-3,5C000000,-0724,0833,12089,036.4,045.8,0.470,737.0,01.18,0.508
2014-07-11 03:51:00,1803E-3,5C000000,-0724,0833,11983,036.4,045.8,0.470,736.9,01.18,0.508
2014-07-11 03:52:00,1797E-3,5C000000,-0724,0834,12127,036.4,045.8,0.470,737.1,01.18,0.508
2014-07-11 03:53:00,1652E-3,5C000000,-0724,0833,12243,036.4,045.8,0.470,737.0,01.18,0.508
2014-07-11 03:54:00,1833E-3,5C000000,-0724,0833,12197,036.4,045.8,0.470,737.1,01.18,0.508
2014-07-11 03:55:00,1863E-3,5C000000,-0724,0834,12163,036.3,045.8,0.471,737.0,01.18,0.508
2014-07-11 03:56:00,1898E-3,5C000000,-0724,0833,12189,036.3,045.8,0.470,737.2,01.18,0.508
2014-07-11 03:57:00,1845E-3,5C000000,-0724,0834,12109,036.3,045.8,0.471,737.1,01.18,0.508
2014-07-11 03:58:00,1930E-3,5C000000,-0724,0834,12193,036.3,045.8,0.470,737.2,01.18,0.508
2014-07-11 03:59:00,1889E-3,5C000000,-0724,0833,12014,036.3,045.8,0.471,737.1,01.18,0.508
2014-07-11 04:00:00,1848E-3,5C000000,-0724,0833,12180,036.3,045.8,0.470,737.1,01.18,0.508
2014-07-11 04:01:00,1825E-3,5C000000,-0724,0833,12147,036.3,045.8,0.471,737.0,01.18,0.508
2014-07-11 04:02:00,1663E-3,5C000000,-0724,0834,12057,036.2,045.8,0.470,737.2,01.18,0.508
2014-07-11 04:03:00,1742E-3,5C000000,-0724,0833,12234,036.2,045.8,0.471,737.2,01.18,0.508
2014-07-11 04:04:00,1820E-3,5C000000,-0724,0833,12120,036.2,045.8,0.470,737.2,01.18,0.508
2014-07-11 04:05:00,1784E-3,5C000000,-0724,0833,12247,036.2,045.8,0.471,737.1,01.18,0.508
2014-07-11 04:06:00,1932E-3,5C000000,-0724,0834,11924,036.2,045.8,0.470,737.2,01.18,0.508
2014-07-11 04:07:00,1768E-3,5C000000,-0724,0834,12133,036.2,045.8,0.471,737.3,01.18,0.508
2014-07-11 04:08:00,1708E-3,5C000000,-0724,0833,12161,036.2,045.8,0.471,737.2,01.18,0.508
2014-07-11 04:09:00,1862E-3,5C000000,-0724,0833,12248,036.1,045.8,0.471,737.3,01.18,0.508
2014-07-11 04:10:00,1822E-3,5C000000,-0724,0833,11851,036.1,045.8,0.471,737.3,01.18,0.508
2014-07-11 04:11:00,1853E-3,5C000000,-0724,0834,12302,036.2,045.8,0.471,737.2,01.18,0.508
2014-07-11 04:12:00,1858E-3,5C000000,-0724,0834,12255,036.1,045.8,0.471,737.2,01.18,0.508
2014-07-11 04:13:00,1878E-3,5C000000,-0724,0833,12220,036.1,045.8,0.471,737.2,01.18,0.508
2014-07-11 04:14:00,1735E-3,5C000000,-0724,0832,12175,036.1,045.8,0.470,737.2,01.18,0.508
2014-07-11 04:15:00,1783E-3,5C000000,-0724,0833,12162,036.1,045.8,0.471,737.3,01.18,0.508
2014-07-11 04:16:00,1904E-3,5C000000,-0724,0832,12221,036.1,045.8,0.471,737.3,01.18,0.508
2014-07-11 04:17:00,1754E-3,5C000000,-0724,0834,12246,036.1,045.8,0.471,737.2,01.18,0.508
2014-07-11 04:18:00,1881E-3,5C000000,-0724,0833,12235,036.1,045.8,0.471,737.3,01.18,0.508
2014-07-11 04:19:00,1832E-3,5C000000,-0724,0833,12150,036.1,045.8,0.471,737.1,01.18,0.508
2014-07-11 04:20:00,1820E-3,5C000000,-0724,0834,12178,036.1,045.8,0.470,737.2,01.18,0.508